Temperature
19 19 18 18 18 18 18 17 17 17 17 17 17 17 17 17 17 17 17 17 17 17 16 16 16 17 16 16 17 17 17 16 16 16 16 16 16 16 16 16 16 16 15
19 19 18 18 18 18 18 17 17 17 17 17 17 17 17 17 17 17 16 16 16 16 16 16 16 16 16 16 16 16 16 16 16 16 16 16 15 15 15 15 15 15 15
19 18 18 18 18 18 17 17 17 17 17 17 17 17 17 17 17 16 16 16 16 16 16 16 16 16 16 16 16 16 16 16 15 15 15 15 15 15 15 15 15 14 14
19 18 18 18 17 17 17 17 17 17 17 17 16 16 16 16 16 16 16 16 15 15 15 15 15 15 15 15 15 15 15 15 15 15 14 14 14 14 14 14 14 14 14
19 18 18 17 17 17 17 17 17 16 16 16 16 16 16 16 16 15 15 15 15 15 15 15 15 15 15 15 15 15 15 14 14 14 14 14 14 14 14 13 13 13 13
18 18 17 17 17 17 17 16 16 16 16 16 16 16 16 15 15 15 15 15 15 15 14 14 14 14 14 14 14 14 14 14 14 14 13 13 13 13 13 13 13 13 12
18 18 17 17 17 16 16 16 16 16 16 16 15 15 15 15 15 15 15 15 14 14 14 14 14 14 14 13 13 13 13 13 13 13 13 12 12 12 12 12 12 12 12
17 17 17 17 16 16 16 16 15 15 15 15 15 15 15 15 14 14 14 14 14 14 14 13 13 13 13 13 13 13 13 12 12 12 12 12 12 12 12 12 12 11 11
17 17 16 16 16 16 15 15 15 15 15 15 14 14 14 14 14 14 14 13 13 13 13 13 13 13 12 12 12 12 12 12 11 11 11 11 11 11 11 11 11 11 10
17 17 16 16 16 15 15 15 14 14 14 14 14 14 14 13 13 13 13 13 13 12 12 12 12 12 12 12 11 11 11 11 11 11 11 10 10 10 10 10 10 10 10
16 16 16 16 15 15 14 14 14 14 14 13 13 13 13 13 13 13 12 12 12 12 12 11 11 11 11 11 11 11 10 10 10 10 10 10 10 10 9 9 9 9 9
16 16 15 15 14 14 14 14 14 13 13 13 13 12 12 12 12 12 12 12 11 11 11 11 10 10 10 10 10 10 10 10 10 10 9 9 9 9 9 8 8 8 8
15 15 15 15 14 14 14 13 13 13 12 12 12 12 11 11 11 11 11 11 11 11 10 10 10 10 10 10 10 9 9 9 9 9 9 8 8 8 8 8 8 8 8
15 15 14 14 14 13 13 13 13 12 12 12 11 11 11 11 10 10 10 10 10 10 10 9 9 9 9 9 9 9 9 9 8 8 8 8 8 8 7 7 7 7 7
14 14 13 13 13 13 13 12 12 12 12 11 11 11 11 10 10 10 10 10 9 9 9 9 9 9 9 9 8 8 8 8 8 8 8 8 8 7 7 7 7 7 7
14 13 13 12 12 12 12 12 11 11 11 11 10 10 10 10 9 9 9 9 9 9 9 9 8 8 8 8 8 8 8 8 7 7 7 7 7 7 7 7 7 7 7
13 13 12 12 12 11 11 11 11 10 10 10 10 10 9 9 9 9 9 9 9 9 9 8 8 8 8 8 8 7 7 7 7 7 7 7 7 7 7 7 7 7 6
13 12 12 12 11 11 11 10 10 10 9 9 9 9 9 9 9 9 8 8 8 8 8 8 8 8 8 7 7 7 7 7 7 7 6 6 6 6 6 6 6 6 6
12 12 12 11 11 11 10 10 10 9 9 9 9 9 8 8 8 8 8 8 8 8 8 8 7 7 7 7 7 7 6 6 6 6 6 6 6 6 6 6 6 6 6
12 12 11 11 11 11 10 10 10 9 9 9 8 8 8 8 8 8 8 8 8 8 8 7 7 7 7 7 7 6 6 6 6 6 6 6 6 6 6 6 6 6 6
12 11 11 11 11 10 10 10 10 9 9 9 8 8 8 8 8 8 8 8 8 7 7 7 7 7 7 6 6 6 6 6 6 6 6 6 6 6 6 6 6 6 6
11 11 11 11 11 10 10 10 10 9 9 9 8 8 8 8 8 8 8 8 7 7 7 7 7 7 6 6 6 6 6 6 6 6 6 6 6 6 6 6 6 6 6
11 11 11 11 10 10 10 10 10 9 9 9 9 8 8 8 8 8 8 7 7 7 7 7 7 6 6 6 6 6 6 6 6 6 6 5 5 5 5 5 5 6 6
11 11 11 10 10 10 10 10 10 9 9 9 9 8 8 8 8 8 7 7 7 7 7 7 6 6 6 6 6 6 6 6 6 5 5 5 5 5 5 5 5 5 5
11 11 11 10 10 10 10 10 10 9 9 9 9 9 8 8 8 8 7 7 7 7 7 6 6 6 6 6 6 6 6 6 5 5 5 5 5 5 5 5 5 5 5
11 11 11 10 10 10 10 10 9 9 9 9 9 9 8 8 8 8 7 7 7 7 7 6 6 6 6 6 6 6 5 5 5 5 5 5 5 5 5 4 5 5 5
Wind_Speed
5 4 3 3 3 2 2 2 1 1 1 1 0 1 2 2 2 3 3 2 2 3 3 2 2 2 2 2 2 2 3 2 3 3 1 1 1 1 2 3 4 5 5
5 5 4 3 3 3 3 3 2 2 1 1 0 0 1 2 2 2 3 3 3 3 3 2 2 2 2 2 3 3 3 2 2 3 2 1 1 1 1 1 2 2 3
6 6 5 3 3 3 3 3 3 2 2 1 1 0 1 1 0 0 1 1 1 1 1 1 1 1 2 2 2 3 3 3 1 1 2 1 1 1 1 1 2 3 3
6 6 5 4 3 4 3 3 3 2 2 2 2 1 1 1 1 1 1 1 0 1 1 1 2 2 2 2 2 3 3 2 2 1 1 1 0 0 1 0 1 1 1
6 6 5 5 4 4 4 4 4 3 3 3 3 3 3 2 3 2 1 1 1 2 2 3 4 5 6 5 3 3 3 2 2 1 1 1 1 1 1 1 0 0 1
6 6 5 5 5 5 5 4 4 4 4 4 4 4 5 4 6 7 4 3 3 4 4 4 4 6 6 7 9 9 7 4 2 2 2 2 2 2 2 0 0 1 0
6 6 6 6 5 5 5 5 4 4 4 4 4 5 6 7 8 8 7 4 5 5 4 4 4 5 5 4 6 7 8 9 6 3 3 3 3 3 3 2 1 1 1
7 6 6 6 5 5 5 5 4 4 4 5 5 5 5 7 8 7 7 5 6 6 6 5 4 4 4 4 4 6 7 7 7 6 5 4 4 4 3 2 1 1 2
7 6 6 6 6 6 6 5 5 5 6 6 6 6 6 7 9 8 5 5 6 7 7 7 6 6 7 6 5 5 5 4 7 9 9 8 10 11 9 4 3 1 1
7 6 6 6 6 6 6 5 5 5 6 6 7 7 7 7 10 11 7 4 5 5 6 7 10 8 8 7 4 4 4 3 3 5 5 6 7 9 12 7 4 3 2
7 7 7 7 7 7 6 5 5 6 6 6 7 6 7 8 10 12 10 5 4 5 5 5 5 9 9 9 7 4 3 3 2 3 4 4 4 5 7 9 7 4 4
7 8 7 7 6 7 6 6 6 6 6 6 6 6 6 7 9 10 11 9 7 6 5 4 5 8 9 8 5 6 6 4 2 3 4 5 5 5 4 6 8 7 6
8 8 8 8 7 6 5 5 4 4 4 4 5 5 6 6 6 9 9 9 8 5 5 6 5 5 5 4 5 5 4 3 3 4 5 4 3 3 3 3 4 4 4
8 8 8 8 8 8 6 6 5 5 4 4 4 5 5 5 4 4 4 5 5 5 4 4 4 5 4 4 4 3 3 3 3 4 4 3 2 2 2 2 2 2 3
8 8 8 8 9 9 9 8 8 7 6 5 5 5 5 5 5 6 4 4 3 3 2 2 3 3 3 3 4 5 5 5 5 4 4 3 3 3 3 3 3 2 3
7 7 7 7 7 8 8 9 15 12 14 15 12 9 7 7 6 9 10 9 8 6 5 4 4 4 5 5 5 5 5 5 4 4 4 4 3 4 4 4 4 4 4
7 6 6 7 7 7 7 7 7 8 12 14 13 12 9 7 7 7 7 7 6 5 4 4 5 5 5 5 5 5 5 5 4 4 4 4 4 4 4 4 4 4 3
8 7 7 6 6 6 7 7 6 7 6 6 7 8 7 6 5 5 4 3 3 3 4 4 4 4 4 4 5 4 4 4 3 3 4 4 4 4 3 3 3 3 3
7 6 5 6 6 6 6 6 6 7 7 6 5 3 2 3 3 3 3 2 3 4 4 4 4 4 4 4 4 4 4 3 3 3 3 3 3 3 3 3 2 3 3
6 7 6 6 7 6 6 6 6 6 6 5 5 4 3 3 2 2 2 2 2 3 4 4 4 4 4 4 3 3 3 3 2 2 2 2 3 3 3 3 3 3 2
7 7 6 6 6 6 6 6 6 6 6 5 5 4 2 3 3 3 3 2 3 3 4 4 3 3 3 3 3 3 3 3 3 3 3 3 3 3 3 3 3 4 4
7 7 6 6 6 6 6 6 6 6 6 6 5 4 2 1 2 3 3 3 3 3 3 2 2 3 3 3 2 3 3 3 3 4 4 4 3 3 3 3 3 4 4
7 7 7 6 6 6 5 5 5 6 6 5 5 5 4 2 2 2 3 3 3 3 4 3 3 4 5 5 6 6 5 5 4 4 4 4 4 4 4 4 4 4 4
7 7 8 7 6 6 5 6 5 5 5 5 4 4 4 3 2 3 3 3 3 3 4 3 4 5 6 6 6 7 7 7 6 6 7 6 5 4 4 4 4 5 4
6 6 7 7 6 6 5 5 4 4 4 4 3 3 3 3 3 3 3 3 3 3 3 3 3 4 5 5 5 5 6 6 7 7 7 7 6 5 5 5 5 5 5
5 6 6 5 5 5 5 4 4 4 3 3 3 3 2 3 3 3 3 2 2 3 2 2 2 3 3 3 4 4 2 3 5 6 7 8 7 5 5 5 7 6 6
Wind_Direction
147 148 129 139 136 132 102 92 97 74 48 69 174 224 223 216 217 222 230 216 217 230 239 231 241 264 293 309 306 298 289 272 266 279 294 356 12 43 109 139 143 147 147
145 137 124 121 118 116 105 99 97 97 86 74 111 310 271 243 237 229 235 225 217 225 240 246 241 252 258 297 307 303 299 299 275 280 303 339 342 358 94 123 117 150 129
144 137 129 120 110 102 95 93 93 92 87 59 48 14 290 294 267 259 235 222 219 235 271 285 293 298 311 309 306 305 303 297 294 275 272 268 325 329 49 72 67 75 81
137 133 129 125 115 106 97 86 81 80 84 72 43 17 10 24 25 36 88 107 73 27 28 35 29 20 355 327 319 320 312 324 340 317 292 332 16 360 85 116 61 86 89
131 128 127 124 114 107 103 94 86 75 76 68 52 37 31 29 25 19 64 107 74 59 55 60 63 61 55 42 26 11 1 4 1 23 34 35 19 14 332 290 354 137 89
129 124 119 116 112 107 103 94 89 78 66 62 58 53 49 38 35 43 55 56 59 57 56 61 74 68 68 75 68 57 47 37 18 27 30 34 14 1 336 329 199 256 225
127 122 119 117 113 108 106 98 92 86 74 66 63 62 60 43 41 48 55 66 61 57 54 47 49 50 51 65 77 65 54 50 53 60 49 28 16 1 341 331 340 358 355
126 121 120 125 123 114 104 94 85 79 74 66 63 66 64 44 38 46 57 72 66 58 50 50 61 48 43 51 76 79 68 51 55 68 68 49 33 8 353 342 331 73 76
122 118 117 117 113 108 100 89 82 80 76 71 66 62 61 45 31 38 51 88 80 68 56 48 50 55 39 49 79 90 86 81 71 78 77 67 54 42 34 31 23 55 70
114 111 107 104 103 102 98 93 88 86 84 79 71 63 61 53 36 35 38 83 88 85 70 58 54 51 34 37 61 77 75 62 70 71 68 57 54 49 44 37 28 35 56
111 105 99 97 100 101 99 97 97 93 91 88 83 74 66 59 50 45 47 63 73 81 76 65 53 49 45 43 54 59 52 38 58 81 80 67 57 51 49 45 41 46 56
105 102 99 95 95 97 98 96 98 101 100 95 89 83 72 60 53 51 53 55 59 69 73 75 68 60 55 46 49 37 33 38 55 69 72 65 58 50 50 52 55 57 65
106 102 96 91 84 86 90 95 98 97 98 96 93 86 80 74 63 58 59 59 58 69 77 79 72 64 59 54 48 39 42 51 59 72 70 64 59 46 39 48 45 46 61
114 110 105 100 87 68 59 60 61 52 68 85 84 85 83 67 52 51 71 79 85 90 94 97 87 66 56 42 44 45 52 47 53 66 65 59 58 57 47 42 39 37 58
118 115 109 98 92 78 66 53 62 54 55 64 69 75 82 78 38 36 56 56 57 66 72 85 77 73 71 69 64 55 55 49 44 47 53 53 51 46 45 35 19 17 36
126 124 118 115 111 106 97 80 58 65 64 63 63 77 77 77 70 60 55 52 49 50 60 60 64 61 63 66 66 67 62 50 37 40 44 40 39 43 44 39 28 28 31
127 126 123 124 125 123 119 112 101 77 67 64 64 69 79 81 71 60 50 39 34 48 63 65 65 61 59 61 63 63 64 54 37 39 38 34 33 38 44 41 34 25 19
126 122 127 128 128 125 125 125 124 122 111 89 69 70 79 80 67 51 38 32 57 70 71 69 72 71 65 61 64 64 64 58 42 40 44 31 24 28 30 31 37 15 357
129 132 130 128 129 128 130 127 122 120 117 119 121 108 96 97 63 29 32 49 64 67 76 73 70 70 69 63 59 58 58 58 46 35 40 23 14 18 19 11 20 12 344
119 121 131 135 134 134 135 130 126 125 122 125 126 132 151 155 124 106 94 74 74 74 72 75 71 67 61 59 59 52 56 56 39 29 28 7 359 359 1 4 4 353 1
128 131 136 133 128 130 129 127 129 132 129 121 111 104 116 136 119 110 107 96 80 77 74 72 72 69 66 53 50 54 48 41 29 12 7 355 351 352 343 357 0 354 355
132 138 145 133 128 130 132 135 137 131 129 130 133 135 144 151 104 102 106 103 98 92 85 78 75 72 65 60 48 40 36 32 26 10 359 350 342 341 352 360 358 348 344
137 142 138 128 126 128 143 138 136 138 138 139 139 141 146 148 118 103 96 89 90 91 85 72 56 57 56 55 50 43 36 29 17 10 356 341 340 346 348 348 338 334 347
147 143 136 134 140 152 145 135 136 136 132 130 131 137 143 142 120 104 98 97 94 90 88 88 80 68 58 53 58 57 47 32 17 4 351 335 332 333 334 333 328 335 341
143 139 138 143 148 148 141 140 139 135 133 135 138 139 135 131 130 126 123 123 121 111 112 104 97 88 78 69 68 68 56 37 20 359 340 323 319 325 326 325 323 320 321
140 141 142 145 142 137 135 140 141 141 137 134 130 126 137 147 139 132 131 130 141 138 133 125 116 119 124 109 98 97 66 17 351 339 328 313 309 311 320 314 310 308 306
Height
1542 1543 1543 1544 1544 1545 1545 1546 1546 1547 1548 1548 1549 1550 1551 1552 1553 1553 1554 1555 1556 1556 1557 1558 1558 1559 1560 1560 1561 1560 1560 1560 1559 1559 1559 1559 1559 1559 1559 1559 1559 1559 1559
1541 1542 1543 1544 1544 1544 1545 1545 1545 1546 1547 1547 1548 1549 1549 1550 1550 1551 1552 1552 1553 1553 1554 1555 1555 1556 1556 1557 1557 1557 1557 1556 1556 1555 1555 1555 1555 1556 1556 1556 1555 1555 1556
1541 1542 1543 1543 1544 1544 1544 1545 1545 1546 1546 1546 1547 1547 1548 1548 1549 1549 1550 1550 1550 1551 1551 1552 1553 1553 1553 1553 1553 1553 1553 1553 1552 1552 1551 1551 1552 1552 1552 1552 1552 1552 1552
1541 1542 1542 1543 1544 1544 1544 1545 1545 1545 1545 1545 1546 1546 1547 1547 1547 1547 1548 1548 1548 1549 1549 1550 1550 1550 1550 1550 1550 1550 1550 1549 1549 1548 1548 1548 1548 1549 1549 1549 1549 1549 1549
1541 1541 1542 1543 1543 1544 1544 1545 1545 1545 1545 1545 1545 1545 1545 1545 1546 1546 1546 1546 1546 1547 1547 1547 1548 1548 1548 1548 1548 1548 1547 1547 1546 1546 1546 1546 1546 1546 1546 1546 1546 1547 1547
1540 1541 1542 1543 1543 1544 1544 1544 1545 1545 1545 1545 1545 1545 1544 1545 1545 1545 1545 1545 1545 1545 1545 1546 1546 1546 1545 1546 1546 1546 1545 1545 1544 1544 1544 1544 1544 1544 1544 1544 1544 1544 1544
1540 1541 1542 1542 1543 1544 1544 1544 1545 1545 1545 1545 1545 1544 1544 1544 1544 1544 1544 1544 1544 1544 1544 1544 1544 1544 1544 1544 1544 1544 1543 1543 1543 1543 1542 1542 1542 1542 1542 1542 1542 1542 1542
1539 1541 1541 1542 1543 1543 1544 1544 1545 1545 1545 1545 1544 1544 1544 1544 1544 1544 1544 1544 1543 1543 1543 1543 1543 1543 1543 1543 1543 1542 1542 1542 1542 1542 1541 1541 1541 1541 1540 1540 1540 1540 1540
1539 1540 1541 1542 1543 1543 1543 1544 1544 1544 1544 1544 1544 1544 1544 1544 1544 1544 1544 1543 1543 1543 1543 1542 1542 1542 1542 1542 1542 1542 1541 1541 1542 1541 1541 1541 1540 1540 1539 1539 1538 1538 1538
1538 1539 1541 1542 1542 1543 1543 1544 1544 1544 1544 1544 1544 1544 1544 1544 1544 1544 1544 1543 1543 1542 1542 1542 1542 1542 1542 1542 1542 1541 1541 1541 1542 1541 1541 1540 1540 1539 1538 1538 1537 1537 1536
1538 1539 1540 1541 1542 1543 1543 1544 1544 1544 1544 1544 1544 1544 1544 1544 1544 1544 1544 1543 1543 1543 1542 1542 1542 1542 1542 1542 1542 1542 1542 1542 1542 1541 1541 1540 1540 1539 1538 1538 1537 1537 1536
1537 1539 1540 1541 1542 1543 1543 1544 1544 1544 1545 1545 1545 1545 1545 1545 1545 1545 1544 1544 1543 1543 1543 1543 1543 1543 1543 1543 1543 1543 1543 1543 1542 1542 1541 1541 1540 1540 1539 1539 1538 1538 1538
1537 1538 1539 1541 1542 1543 1543 1544 1545 1545 1545 1545 1546 1545 1545 1545 1545 1545 1545 1545 1544 1544 1544 1544 1544 1544 1544 1543 1543 1543 1543 1543 1542 1542 1542 1542 1542 1541 1541 1540 1540 1539 1539
1537 1538 1539 1540 1541 1542 1543 1544 1544 1545 1546 1546 1546 1546 1546 1546 1546 1545 1545 1545 1545 1545 1545 1545 1545 1545 1545 1544 1544 1544 1544 1544 1543 1543 1543 1543 1543 1543 1542 1542 1541 1541 1540
1537 1538 1539 1541 1541 1542 1543 1544 1544 1545 1546 1546 1546 1546 1546 1546 1546 1546 1546 1546 1546 1546 1547 1547 1547 1546 1546 1546 1546 1545 1545 1545 1545 1545 1545 1544 1544 1544 1544 1544 1543 1542 1542
1537 1538 1540 1541 1542 1543 1543 1544 1545 1546 1547 1547 1547 1548 1547 1548 1548 1548 1548 1549 1549 1549 1549 1549 1549 1549 1548 1548 1548 1548 1547 1547 1547 1547 1547 1546 1546 1546 1545 1545 1545 1544 1543
1537 1539 1540 1541 1543 1544 1544 1545 1546 1547 1548 1549 1549 1549 1549 1550 1550 1550 1551 1551 1551 1551 1551 1551 1551 1551 1551 1551 1551 1550 1550 1550 1549 1549 1549 1548 1548 1548 1547 1547 1546 1545 1544
1537 1539 1540 1542 1543 1545 1546 1546 1547 1548 1549 1550 1551 1551 1552 1552 1552 1553 1553 1553 1554 1554 1554 1554 1554 1554 1554 1553 1553 1552 1552 1552 1551 1551 1551 1551 1550 1550 1549 1548 1547 1547 1546
1538 1539 1541 1543 1544 1546 1547 1548 1549 1550 1551 1551 1552 1553 1554 1554 1554 1555 1555 1555 1556 1556 1556 1556 1556 1556 1555 1555 1555 1555 1554 1554 1554 1553 1553 1552 1552 1551 1550 1550 1549 1548 1547
1538 1540 1542 1544 1545 1547 1548 1550 1551 1551 1552 1553 1554 1555 1555 1555 1556 1557 1557 1557 1557 1558 1558 1558 1558 1558 1557 1557 1557 1557 1556 1556 1555 1555 1554 1554 1553 1553 1552 1551 1550 1549 1547
1539 1541 1543 1545 1546 1547 1549 1551 1552 1553 1553 1554 1555 1556 1557 1557 1558 1558 1559 1559 1559 1559 1559 1559 1559 1559 1559 1558 1558 1558 1557 1557 1556 1556 1555 1555 1554 1553 1552 1551 1550 1549 1548
1539 1541 1543 1546 1547 1549 1550 1551 1552 1554 1555 1555 1556 1558 1558 1559 1560 1560 1560 1561 1561 1561 1561 1561 1561 1560 1560 1560 1559 1559 1558 1558 1557 1556 1556 1555 1554 1553 1552 1551 1550 1549 1548
1541 1543 1545 1546 1548 1549 1551 1552 1553 1555 1556 1557 1558 1559 1560 1560 1561 1561 1562 1562 1562 1562 1562 1562 1562 1561 1561 1560 1560 1559 1558 1557 1557 1556 1555 1554 1554 1553 1552 1551 1550 1549 1547
1542 1544 1545 1547 1548 1550 1551 1553 1554 1555 1557 1558 1559 1560 1560 1561 1561 1562 1562 1562 1562 1562 1562 1562 1562 1561 1560 1560 1559 1558 1558 1557 1556 1555 1554 1553 1553 1552 1551 1550 1549 1548 1546
1543 1544 1546 1547 1549 1550 1552 1553 1554 1556 1557 1558 1559 1560 1561 1561 1562 1562 1562 1562 1562 1562 1562 1562 1562 1561 1560 1559 1559 1558 1557 1556 1555 1554 1553 1552 1551 1550 1550 1549 1547 1546 1545
1543 1545 1546 1548 1549 1551 1552 1553 1555 1556 1558 1559 1559 1560 1561 1561 1562 1562 1562 1562 1562 1562 1562 1562 1561 1560 1559 1559 1558 1557 1556 1555 1554 1553 1552 1551 1550 1549 1548 1546 1545 1544 1542